CDT,Max TemperatureF,Mean TemperatureF,Min TemperatureF,Max Dew PointF,MeanDew PointF,Min DewpointF,Max Humidity, Mean Humidity, Min Humidity, Max Sea Level PressureIn, Mean Sea Level PressureIn, Min Sea Level PressureIn, Max VisibilityMiles, Mean VisibilityMiles, Min VisibilityMiles, Max Wind SpeedMPH, Mean Wind SpeedMPH, Max Gust SpeedMPH,PrecipitationIn, CloudCover, Events, WindDirDegrees
2013-7-1,87,73,59,60,54,48,87,57,27,30.23,30.18,30.14,10,10,8,9,2,17,0.00,0,,16
2013-7-2,89,76,62,60,55,48,84,56,27,30.15,30.10,30.03,10,9,6,12,3,14,0.00,2,,77
2013-7-3,89,77,64,60,56,52,78,55,31,30.02,29.95,29.86,10,10,7,17,8,29,0.00,0,,165
2013-7-4,92,80,67,62,57,51,63,48,32,29.85,29.75,29.68,10,10,10,24,12,30,0.00,0,,172
2013-7-5,90,79,67,67,63,60,84,61,38,29.74,29.71,29.69,10,10,7,10,4,13,0.00,1,,221
2013-7-6,83,77,70,70,67,64,90,74,58,29.79,29.76,29.72,10,9,2,16,6,22,0.17,4,Rain,134
2013-7-7,84,74,63,70,64,55,93,68,42,29.94,29.85,29.78,10,6,1,15,6,22,0.00,2,,344
2013-7-8,88,73,58,63,59,54,87,63,39,29.98,29.94,29.87,10,10,10,13,5,18,0.00,0,,161
2013-7-9,78,69,60,68,62,54,90,72,53,30.04,29.87,29.74,10,10,7,22,11,26,0.09,5,Rain,325
2013-7-10,82,69,55,55,52,48,86,60,33,30.09,30.05,29.99,10,8,5,15,7,22,0.00,0,,272
2013-7-11,88,76,64,66,59,53,73,57,40,30.02,29.92,29.79,10,9,6,25,15,35,0.00,0,,162
2013-7-12,93,83,72,71,66,62,82,65,47,29.83,29.75,29.70,10,10,10,25,13,35,0.00,2,,166
2013-7-13,89,79,68,71,68,66,93,74,55,29.96,29.91,29.85,10,7,0,15,7,19,0.00,3,Fog,60
2013-7-14,77,73,69,70,66,62,90,79,68,30.17,30.08,29.96,10,10,6,21,5,32,T,7,Rain,84
2013-7-15,76,71,65,70,67,63,93,84,74,30.18,30.15,30.04,10,8,2,15,7,20,0.20,6,Rain,118
2013-7-16,93,82,71,68,66,65,84,63,41,30.12,30.06,30.03,10,9,7,24,12,29,0.00,0,,193
2013-7-17,93,79,65,71,67,62,93,69,44,30.18,30.11,30.01,10,10,10,16,6,21,0.00,1,,15
2013-7-18,95,83,71,72,69,67,90,68,46,30.00,29.80,29.66,10,10,10,23,13,29,0.00,1,,211
2013-7-19,87,76,65,64,60,56,87,62,37,29.89,29.84,29.72,10,9,2,25,11,30,0.35,4,Rain,315
2013-7-20,74,66,57,61,53,50,87,67,47,30.03,29.97,29.90,10,10,10,13,8,26,0.00,4,,16
2013-7-21,83,68,53,65,58,49,89,70,51,29.97,29.83,29.64,10,10,10,18,7,24,0.00,2,,141
2013-7-22,75,64,53,66,58,49,87,70,53,29.95,29.78,29.63,10,10,10,20,11,24,0.01,5,,325
2013-7-23,77,64,50,54,52,48,89,66,43,30.06,30.02,29.97,10,10,10,14,5,20,0.00,1,,7
2013-7-24,84,69,53,57,54,49,93,63,32,30.06,29.99,29.89,10,10,10,21,6,33,0.00,2,,276
2013-7-25,83,70,56,59,54,45,87,59,31,29.98,29.93,29.90,10,10,10,25,11,32,0.00,2,,291
2013-7-26,72,61,50,54,49,42,86,62,37,30.19,30.09,29.99,10,10,4,28,16,33,0.01,6,Rain,343
2013-7-27,73,60,47,47,44,41,86,61,35,30.20,30.12,30.03,10,10,10,24,10,31,0.00,3,,350
2013-7-28,76,60,44,48,45,42,93,63,33,30.07,30.05,30.01,10,10,10,9,3,16,0.00,1,,59
2013-7-29,77,64,51,58,51,46,83,62,41,30.05,30.03,30.01,10,10,5,20,10,24,0.07,2,Rain,164
2013-7-30,80,69,58,61,58,56,90,68,45,30.06,30.04,30.02,10,10,10,13,6,17,0.00,3,,235
2013-7-31,78,67,56,57,51,45,93,62,31,30.08,30.06,30.02,10,10,10,24,9,30,0.00,1,,294